Location: Unnamed Road
(35.9029°N, 51.9749°E)
Time: 02:28:11
(UTC+04:30)

Explorer 7 - All Passes

Search period start: 26 May 2020 00:00
Search period end: 05 June 2020 00:00
Orbit: 485 x 679 km, 50.3° (Epoch: 24 May)

Date Brightness Start Highest point End Pass type
(mag) Time Alt. Az. Time Alt. Az. Time Alt. Az.
26 May - 00:53:55 10° SW 00:58:40 80° SE 01:03:12 10° NE visible
26 May - 02:35:55 10° WNW 02:39:37 23° NNW 02:43:09 10° NNE visible
26 May - 04:19:52 10° NNW 04:21:26 12° N 04:22:58 10° NNE visible
26 May - 06:00:52 10° NNW 06:03:26 16° NNE 06:05:55 10° NE daylight
26 May - 07:40:41 10° NW 07:44:40 59° NE 07:48:26 10° ESE daylight
26 May - 09:22:26 10° W 09:24:43 15° SW 09:26:58 10° SSW daylight
26 May - 23:19:41 10° S 23:23:12 20° SE 23:26:37 10° E night (unlit)
27 May - 00:58:46 10° WSW 01:03:29 64° NW 01:07:59 10° NE visible
27 May - 02:41:32 10° WNW 02:44:42 18° NNW 02:47:45 10° NNE visible
27 May - 04:25:10 10° NNW 04:26:40 12° N 04:28:09 10° NNE visible
27 May - 06:05:24 10° NNW 06:08:34 20° NNE 06:11:34 10° ENE daylight
27 May - 07:45:28 10° NW 07:49:29 79° SW 07:53:18 10° SE daylight
27 May - 23:23:31 10° SSW 23:27:51 34° SE 23:32:02 10° ENE visible
28 May - 01:03:53 10° WSW 01:08:23 42° NNW 01:12:40 10° NE visible
28 May - 02:47:15 10° NW 02:49:50 15° NNW 02:52:22 10° NNE visible
28 May - 04:30:04 10° NNW 04:31:55 12° N 04:33:43 10° NNE visible
28 May - 06:10:00 10° NNW 06:13:37 28° NNE 06:17:03 10° E daylight
28 May - 07:50:25 10° WNW 07:54:13 42° SW 07:57:50 10° SSE daylight
28 May - 23:27:50 10° SW 23:32:33 56° SE 23:37:06 10° ENE visible
29 May - 01:09:11 10° W 01:13:20 29° NNW 01:17:18 10° NNE visible
29 May - 02:52:56 10° NW 02:55:03 13° N 02:57:07 10° NNE visible
29 May - 04:34:45 10° NNW 04:37:08 14° NNE 04:39:26 10° NE visible
29 May - 06:14:36 10° NW 06:18:35 42° NNE 06:22:19 10° ESE daylight
29 May - 07:55:39 10° WNW 07:58:52 23° SW 08:01:58 10° S daylight
29 May - 21:54:38 10° SSE 21:57:12 14° SE 21:59:43 10° E night (unlit)
29 May - 23:32:29 10° SW 23:37:19 89° NW 23:41:59 10° NE visible
30 May - 01:14:42 10° WNW 01:18:23 22° NNW 01:21:55 10° NNE visible
30 May - 02:58:27 10° NNW 03:00:17 12° N 03:02:05 10° NNE visible
30 May - 04:39:21 10° NNW 04:42:17 18° NNE 04:45:07 10° ENE visible
30 May - 06:19:19 10° NW 06:23:28 71° NE 06:27:21 10° ESE daylight
30 May - 08:01:34 10° W 08:03:26 13° SW 08:05:16 10° SSW daylight
30 May - 21:57:54 10° S 22:01:47 24° SE 22:05:36 10° ENE visible
30 May - 23:37:24 10° WSW 23:42:10 57° NW 23:46:44 10° NE visible
31 May - 01:20:19 10° WNW 01:23:29 18° NNW 01:26:34 10° NNE visible
31 May - 03:03:38 10° NNW 03:05:32 12° N 03:07:23 10° NNE visible
31 May - 04:43:55 10° NNW 04:47:24 23° NNE 04:50:42 10° ENE visible
31 May - 06:24:09 10° NW 06:28:15 66° SW 06:32:08 10° SE daylight
31 May - 22:01:54 10° SSW 22:06:27 40° SE 22:10:53 10° ENE visible
31 May - 23:42:34 10° W 23:47:04 38° NNW 23:51:25 10° NE visible
01 Jun - 01:26:00 10° NW 01:28:39 15° NNW 01:31:15 10° NNE visible
01 Jun - 03:08:31 10° NNW 03:10:46 14° N 03:12:58 10° NE visible
01 Jun - 04:48:32 10° NW 04:52:26 32° NNE 04:56:06 10° E visible
01 Jun - 06:29:09 10° WNW 06:32:58 36° SW 06:36:34 10° SSE daylight
01 Jun - 22:06:20 10° SW 22:11:10 66° SE 22:15:52 10° NE visible
01 Jun - 23:47:56 10° W 23:52:04 28° NNW 23:56:03 10° NNE visible
02 Jun - 01:31:37 10° NW 01:33:52 13° N 01:36:05 10° NNE visible
02 Jun - 03:13:12 10° NNW 03:15:58 16° NNE 03:18:38 10° NE visible
02 Jun - 04:53:11 10° NW 04:57:22 50° NE 05:01:18 10° ESE visible
02 Jun - 06:34:30 10° W 06:37:34 20° SW 06:40:32 10° S daylight
02 Jun - 20:32:38 10° SSE 20:35:45 17° SE 20:38:52 10° E daylight
02 Jun - 22:11:04 10° SW 22:15:57 78° NW 22:20:42 10° NE visible
02 Jun - 23:53:28 10° WNW 23:57:07 21° NNW 00:00:41 10° NNE visible
03 Jun - 01:37:01 10° NNW 01:39:07 13° N 01:41:10 10° NNE visible
03 Jun - 03:17:49 10° NNW 03:21:07 20° NNE 03:24:16 10° ENE visible
03 Jun - 04:57:55 10° NW 05:02:14 83° NE 05:06:15 10° SE visible
03 Jun - 06:40:50 10° WSW 06:42:07 11° SW 06:43:24 10° SW daylight
03 Jun - 20:36:12 10° S 20:40:22 28° SE 20:44:29 10° ENE visible
03 Jun - 22:16:04 10° WSW 22:20:49 51° NW 22:25:27 10° NE visible
03 Jun - 23:59:06 10° WNW 00:02:16 17° NNW 00:05:20 10° NNE visible
04 Jun - 01:42:07 10° NNW 01:44:22 13° N 01:46:33 10° NE visible
04 Jun - 03:22:25 10° NNW 03:26:12 26° NNE 03:29:46 10° E visible
04 Jun - 05:02:47 10° WNW 05:07:00 56° SW 05:10:56 10° SE visible
04 Jun - 20:40:21 10° SSW 20:45:02 47° SE 20:49:39 10° ENE visible
04 Jun - 22:21:17 10° W 22:25:45 35° NNW 22:30:07 10° NE visible
